[[{"header":{"parameterUnit":"m.s-1","parameterCategory":1,"la1":30.2991,"la2":30.254,"lo1":-89.0895,"lo2":-89.0444,"dy":0.0017,"dx":0.0017,"nx":28,"ny":28,"refTime":"2023-11-16T03:00:00:Z","depth":0,"parameterNumber":2,"parameterNumberName":"U-component_of_WINDS"},"data":[0,0,0,0,0,0,0,0,0,0,0,0,0,0,0,0,0,0,0,0,0,0,0,0,0,0,0,0,0,0,0,0,0,0,0,0,0,0,0,0,0,0,0,0,0,0,0,0,0,0,0,0,0,0,0,0,0,0,-2.749,-2.749,0,-2.753,-2.7531,-2.7531,-2.7456,-2.7454,-2.7451,-2.7449,-2.7493,-2.7496,-2.75,0,0,0,0,0,0,0,0,0,0,0,0,0,-2.735,-2.7353,-2.749,-2.749,-2.7491,-2.753,-2.7531,-2.7531,-2.7457,-2.7454,-2.7451,-2.7448,-2.7492,-2.7496,-2.75,0,0,0,0,0,0,0,0,0,0,0,0,0,-2.7403,-2.7354,-2.749,-2.7458,-2.7456,-2.753,-2.7531,-2.7531,-2.7457,-2.7454,-2.745,-2.7446,-2.749,-2.7495,-2.75,-2.7608,0,0,-2.7516,-2.7519,0,0,0,0,0,0,0,0,-2.74,-2.7408,-2.7462,-2.7461,-2.7458,-2.7484,-2.7497,-2.7557,-2.7458,-2.7457,-2.7449,-2.7445,-2.7493,-2.7498,-2.7514,-2.761,-2.7612,-2.7517,-2.752,-2.7522,-2.7524,0,0,0,0,0,0,0,-2.7397,-2.7406,-2.7506,-2.7463,-2.7461,-2.7443,-2.7446,-2.7508,-2.7496,-2.7457,-2.7451,-2.7457,-2.7491,-2.7509,-2.7514,-2.7612,-2.7517,-2.7521,-2.7525,-2.7527,-2.78,-2.7804,0,0,0,0,0,0,-2.7397,-2.7404,-2.7504,-2.7507,-2.7419,-2.7449,-2.7452,-2.748,-2.7495,-2.7493,-2.746,-2.7453,-2.7502,-2.7508,-2.7516,-2.7644,-2.7522,-2.7527,-2.753,-2.7796,-2.7801,-2.7806,0,0,0,0,0,0,-2.7394,-2.7406,-2.7503,-2.7454,-2.7465,-2.7455,-2.7486,-2.7483,-2.75,-2.7497,-2.7495,-2.7481,-2.7499,-2.7508,-2.7586,-2.7644,-2.753,-2.7534,-2.7791,-2.7798,-2.7803,-2.7901,0,0,0,0,0,0,-2.739,-2.7406,-2.7446,-2.7455,-2.7468,-2.7572,-2.749,-2.7486,-2.7509,-2.7501,-2.7516,-2.7515,-2.7497,-2.7578,-2.7591,-2.765,-2.7538,-2.7786,-2.7794,-2.7801,-2.7892,-2.791,-2.7924,0,0,0,0,0,-2.7385,-2.7472,-2.7448,-2.7461,-2.7518,-2.7575,-2.7583,-2.756,-2.7514,-2.7555,-2.7553,-2.7514,-2.7635,-2.7587,-2.76,-2.7662,-2.7782,-2.7792,-2.7801,-2.7885,-2.7906,-2.7924,0,0,0,0,0,0,-2.747,-2.7472,-2.7446,-2.7538,-2.7557,-2.7563,-2.7614,-2.7582,-2.7615,-2.7606,-2.7577,-2.7581,-2.7665,-2.767,-2.7616,-2.7767,-2.7701,-2.7714,-2.7761,-2.7781,-2.7796,-2.7794,-2.7543,0,0,0,0,0,-2.7499,-2.7546,-2.7545,-2.7626,-2.7637,-2.7624,-2.7648,-2.7629,-2.7648,-2.7655,-2.7659,-2.768,-2.7722,-2.7751,-2.779,-2.7892,-2.7895,-2.7941,-2.7957,-2.797,-2.7982,-2.8038,-2.8059,-2.7836,-2.7836,-2.7836,0,0,-2.7561,-2.7567,-2.7599,-2.7643,-2.7656,-2.7706,-2.7631,-2.7686,-2.7723,-2.7664,-2.7738,-2.7742,-2.7762,-2.7853,-2.7893,-2.786,-2.8044,-2.7981,-2.7992,-2.7997,-2.805,-2.8071,-2.809,-2.7842,-2.7841,-2.784,0,0,-2.7698,-2.7707,-2.7777,-2.779,-2.781,-2.7801,-2.7817,-2.7828,-2.7828,-2.7901,-2.7858,-2.7902,-2.7975,-2.7993,-2.8011,-2.8155,-2.8122,-2.8169,-2.8253,-2.8308,-2.8326,-2.8342,-2.8396,-2.8415,-2.818,-2.818,-2.818,0,-2.7772,-2.7845,-2.7816,-2.7875,-2.7897,-2.7844,-2.7916,-2.793,-2.7962,-2.7979,-2.7941,-2.8033,-2.8043,-2.8139,-2.8174,-2.8189,-2.8209,-2.8168,-2.8326,-2.8341,-2.8355,-2.8406,-2.8426,-2.8186,-2.8185,-2.8185,-2.8184,0,-2.7936,-2.7987,-2.8041,-2.8073,-2.81,-2.8165,-2.8147,-2.8178,-2.8156,-2.8151,-2.8228,-2.8238,-2.8279,-2.8299,-2.8278,-2.8392,-2.8371,-2.833,-2.8264,-2.8382,-2.843,-2.8449,-2.8194,-2.8192,-2.8191,-2.8189,0,0,-2.813,-2.8145,-2.8165,-2.818,-2.8197,-2.8237,-2.8299,-2.8339,-2.8367,-2.839,-2.8444,-2.8507,-2.8469,-2.849,-2.8471,-2.8519,-2.8636,-2.8472,-2.8472,-2.8504,-2.8764,-2.8798,-2.8821,-2.8612,-2.8616,-2.8618,-2.8764,0,-2.8268,-2.8376,-2.8352,-2.8459,-2.8507,-2.8457,-2.8512,-2.8529,-2.8526,-2.8567,-2.8563,-2.861,-2.8555,-2.8568,-2.8613,-2.8612,-2.8688,-2.8601,-2.8664,-2.8666,-2.8663,-2.8845,-2.888,-2.9016,-2.8782,-2.8785,-2.8787,0,-2.8445,-2.8475,-2.8586,-2.8597,-2.8616,-2.8666,-2.8701,-2.874,-2.8759,-2.8753,-2.8777,-2.8748,-2.8812,-2.8743,-2.8831,-2.8772,-2.8796,-2.88,-2.8804,-2.8812,-2.8736,-2.886,-2.9059,-2.9081,-2.8816,-2.8813,-2.8811,0,-2.8579,-2.8647,-2.8722,-2.8736,-2.875,-2.8786,-2.8794,-2.8809,-2.8835,-2.8865,-2.8882,-2.892,-2.8941,-2.8971,-2.8954,-2.8905,-2.9047,-2.8976,-2.9046,-2.9047,-2.908,-2.9079,-2.9289,-2.9091,-2.9091,-2.909,-2.909,0,-2.8738,-2.8808,-2.8783,-2.883,-2.8908,-2.888,-2.8958,-2.896,-2.8974,-2.9022,-2.898,-2.9026,-2.8999,-2.9043,-2.9029,-2.9106,-2.9115,-2.9114,-2.911,-2.912,-2.912,-2.9137,-2.9128,-2.9096,-2.9094,-2.9093,-2.9092,0,-2.8901,-2.8887,-2.8967,-2.8973,-2.8976,-2.9034,-2.904,-2.9085,-2.9078,-2.9138,-2.9151,-2.9141,-2.9191,-2.9176,-2.9229,-2.922,-2.9318,-2.9301,-2.9312,-2.9309,-2.9381,-2.9376,-2.9611,-2.9642,-2.9422,-2.9424,-2.9426,0,-2.9005,-2.9059,-2.9071,-2.9099,-2.911,-2.9156,-2.9182,-2.9156,-2.9186,-2.9212,-2.9254,-2.9299,-2.9334,-2.9416,-2.9415,-2.9456,-2.9441,-2.952,-2.9447,-2.9455,-2.9445,-2.9444,-2.945,-2.9536,-2.9539,-2.9541,-2.9542,0,-2.9192,-2.9182,-2.9221,-2.9258,-2.929,-2.9318,-2.9342,-2.9368,-2.9344,-2.9378,-2.9428,-2.9456,-2.951,-2.9557,-2.9594,-2.9603,-2.9571,-2.9565,-2.9584,-2.9596,-2.9601,-2.9602,-2.9355,-2.9561,-2.9559,-2.9557,-2.9556,-2.9556,-2.9331,-2.9377,-2.9393,-2.9438,-2.9453,-2.9477,-2.9519,-2.9518,-2.9559,-2.9601,-2.9583,-2.9641,-2.966,-2.9706,-2.972,-2.9766,-2.9736,-2.9762,-2.977,-2.9778,-2.9788,-2.9591,-2.9772,-2.9772,-2.9771,-2.9771,-2.977,0,-2.9518,-2.9526,-2.9567,-2.9603,-2.9638,-2.9602,-2.9627,-2.966,-2.9711,-2.973,-2.9766,-2.9824,-2.987,-2.9871,-2.9914,-2.995,-2.9937,-2.9963,-2.9961,-2.9965,-2.9811,-2.9792,-2.9974,-2.9973,-2.9973,-2.9973,-2.9973,-2.9973,-2.962,-2.9697,-2.9689,-2.9773,-2.978,-2.9836,-2.9854,-2.9876,-2.9891,-2.9958,-2.9995,-2.9996,-3.0009,-3.0052,-3.0092,-3.0091,-3.0111,-3.0143,-3.0138,-2.9995,-2.9975,-2.9956,-2.9938,-3.0147,-3.0147,-3.0287,-3.0289,-3.029]},{"header":{"parameterUnit":"m.s-1","parameterCategory":1,"la1":30.2991,"la2":30.254,"lo1":-89.0895,"lo2":-89.0444,"dy":0.0017,"dx":0.0017,"nx":28,"ny":28,"refTime":"2023-11-16T03:00:00:Z","depth":0,"parameterNumber":3,"parameterNumberName":"V-component_of_WINDS"},"data":[0,0,0,0,0,0,0,0,0,0,0,0,0,0,0,0,0,0,0,0,0,0,0,0,0,0,0,0,0,0,0,0,0,0,0,0,0,0,0,0,0,0,0,0,0,0,0,0,0,0,0,0,0,0,0,0,0,0,-3.7406,-3.7406,0,-3.7398,-3.7398,-3.7398,-3.7347,-3.7345,-3.7344,-3.7343,-3.7335,-3.7336,-3.7337,0,0,0,0,0,0,0,0,0,0,0,0,0,-3.7379,-3.7379,-3.7406,-3.7406,-3.7406,-3.7398,-3.7398,-3.7398,-3.7347,-3.7345,-3.7344,-3.7342,-3.7335,-3.7336,-3.7337,0,0,0,0,0,0,0,0,0,0,0,0,0,-3.7383,-3.738,-3.7406,-3.738,-3.7377,-3.7398,-3.7398,-3.7397,-3.7347,-3.7345,-3.7343,-3.7342,-3.7334,-3.7336,-3.7337,-3.7383,0,0,-3.7341,-3.7342,0,0,0,0,0,0,0,0,-3.7382,-3.7384,-3.7384,-3.7382,-3.7379,-3.7371,-3.7385,-3.7393,-3.7348,-3.7359,-3.7343,-3.7341,-3.7349,-3.7349,-3.7351,-3.7382,-3.7382,-3.7341,-3.7342,-3.7343,-3.7343,0,0,0,0,0,0,0,-3.7382,-3.7384,-3.7403,-3.7384,-3.7381,-3.7368,-3.7367,-3.7386,-3.7364,-3.7357,-3.7354,-3.7353,-3.7347,-3.735,-3.7351,-3.7382,-3.7341,-3.7343,-3.7343,-3.7344,-3.745,-3.7451,0,0,0,0,0,0,-3.7386,-3.7384,-3.7403,-3.7403,-3.7376,-3.737,-3.7369,-3.7376,-3.7364,-3.736,-3.7355,-3.7351,-3.7348,-3.7349,-3.735,-3.7402,-3.7343,-3.7344,-3.7345,-3.7448,-3.745,-3.7452,0,0,0,0,0,0,-3.7385,-3.7388,-3.7403,-3.7392,-3.7393,-3.7373,-3.7381,-3.7376,-3.7379,-3.7362,-3.7358,-3.7362,-3.7347,-3.7348,-3.7375,-3.7402,-3.7345,-3.7346,-3.7445,-3.7448,-3.7451,-3.7508,0,0,0,0,0,0,-3.7385,-3.7388,-3.7405,-3.7393,-3.7394,-3.7428,-3.7383,-3.7378,-3.7382,-3.7377,-3.7367,-3.7364,-3.7346,-3.7373,-3.7376,-3.7402,-3.7347,-3.7443,-3.7447,-3.745,-3.7504,-3.7513,-3.752,0,0,0,0,0,-3.7384,-3.7422,-3.7406,-3.7409,-3.7415,-3.743,-3.7431,-3.7408,-3.7384,-3.7401,-3.739,-3.7364,-3.7398,-3.7376,-3.7379,-3.7406,-3.7441,-3.7446,-3.745,-3.75,-3.7511,-3.752,0,0,0,0,0,0,-3.7438,-3.742,-3.7402,-3.7437,-3.7436,-3.7421,-3.7442,-3.7421,-3.7426,-3.7421,-3.7393,-3.7392,-3.7422,-3.7417,-3.7393,-3.745,-3.7415,-3.742,-3.7452,-3.7462,-3.747,-3.7471,-3.7348,0,0,0,0,0,-3.7454,-3.7468,-3.7451,-3.7483,-3.7483,-3.7463,-3.7469,-3.7452,-3.7449,-3.7448,-3.7439,-3.7437,-3.7447,-3.7454,-3.7463,-3.7503,-3.75,-3.7523,-3.7531,-3.7538,-3.7543,-3.7563,-3.7573,-3.7467,-3.7467,-3.7466,0,0,-3.7487,-3.7479,-3.7489,-3.7494,-3.7491,-3.7505,-3.7463,-3.748,-3.7491,-3.7451,-3.7475,-3.7468,-3.7465,-3.7498,-3.7512,-3.7495,-3.7572,-3.7544,-3.7549,-3.755,-3.7569,-3.7579,-3.7588,-3.747,-3.7469,-3.7469,0,0,-3.7555,-3.755,-3.7577,-3.7574,-3.7569,-3.7556,-3.7562,-3.7551,-3.7545,-3.7569,-3.7539,-3.7551,-3.7569,-3.7568,-3.7569,-3.7637,-3.7613,-3.764,-3.7683,-3.7703,-3.7712,-3.7719,-3.7743,-3.7752,-3.7645,-3.7645,-3.7645,0,-3.7597,-3.7618,-3.7593,-3.7612,-3.7615,-3.7579,-3.7606,-3.7604,-3.7603,-3.7606,-3.7586,-3.7608,-3.7603,-3.7635,-3.7651,-3.7654,-3.766,-3.7641,-3.7713,-3.772,-3.7726,-3.7749,-3.7758,-3.7648,-3.7648,-3.7648,-3.7647,0,-3.767,-3.7685,-3.7707,-3.7706,-3.7711,-3.7734,-3.7713,-3.7721,-3.7703,-3.7692,-3.7717,-3.7709,-3.7716,-3.7722,-3.7705,-3.7752,-3.7741,-3.7717,-3.7682,-3.774,-3.7761,-3.7769,-3.7653,-3.7652,-3.7651,-3.765,0,0,-3.7772,-3.7757,-3.7765,-3.7764,-3.7756,-3.7767,-3.7788,-3.7794,-3.7802,-3.7802,-3.7819,-3.7835,-3.7813,-3.7815,-3.7797,-3.7815,-3.7869,-3.7789,-3.7788,-3.7804,-3.792,-3.7938,-3.7948,-3.7853,-3.7855,-3.7856,-3.792,0,-3.7837,-3.7872,-3.785,-3.7889,-3.7902,-3.7868,-3.7886,-3.7883,-3.7873,-3.7883,-3.7871,-3.7883,-3.7853,-3.7854,-3.787,-3.7859,-3.7891,-3.7854,-3.7869,-3.787,-3.7871,-3.7959,-3.7978,-3.8039,-3.7928,-3.7929,-3.793,0,-3.7918,-3.7921,-3.7961,-3.795,-3.7955,-3.7972,-3.7975,-3.7985,-3.7981,-3.7972,-3.7974,-3.7952,-3.7972,-3.7937,-3.7964,-3.7939,-3.7944,-3.794,-3.7941,-3.7942,-3.7904,-3.7962,-3.8058,-3.8067,-3.7943,-3.7942,-3.7941,0,-3.7989,-3.8003,-3.8028,-3.8028,-3.8016,-3.8029,-3.8024,-3.8018,-3.8023,-3.8026,-3.8029,-3.8034,-3.8037,-3.8042,-3.8022,-3.7999,-3.8052,-3.8016,-3.8045,-3.8046,-3.8058,-3.8058,-3.8157,-3.8062,-3.8062,-3.8061,-3.8061,0,-3.8064,-3.8089,-3.806,-3.8076,-3.8103,-3.8078,-3.8106,-3.8098,-3.8093,-3.8106,-3.8077,-3.809,-3.8063,-3.8074,-3.8059,-3.8084,-3.8085,-3.8079,-3.8074,-3.8081,-3.8082,-3.8084,-3.808,-3.8064,-3.8063,-3.8063,-3.8062,0,-3.8147,-3.8128,-3.8154,-3.814,-3.8137,-3.8158,-3.8146,-3.816,-3.8148,-3.8165,-3.8168,-3.8148,-3.8159,-3.814,-3.8149,-3.8139,-3.8173,-3.8162,-3.8175,-3.8172,-3.8202,-3.82,-3.8306,-3.8319,-3.8216,-3.8217,-3.8218,0,-3.8197,-3.8215,-3.8203,-3.821,-3.8207,-3.8219,-3.8223,-3.8198,-3.8204,-3.8201,-3.8215,-3.8224,-3.8229,-3.8249,-3.8236,-3.8242,-3.8231,-3.8268,-3.8232,-3.8239,-3.8232,-3.8231,-3.8233,-3.8276,-3.8277,-3.8278,-3.8279,0,-3.8286,-3.8275,-3.8283,-3.8287,-3.8293,-3.8295,-3.8295,-3.8303,-3.8277,-3.8285,-3.8295,-3.83,-3.8308,-3.8317,-3.8321,-3.8316,-3.8293,-3.829,-3.8297,-3.8305,-3.8311,-3.8308,-3.8195,-3.8288,-3.8287,-3.8286,-3.8286,-3.8285,-3.8354,-3.8369,-3.8362,-3.8372,-3.8369,-3.837,-3.8382,-3.8371,-3.8379,-3.8384,-3.8369,-3.8383,-3.8378,-3.838,-3.8378,-3.8389,-3.8373,-3.8384,-3.8386,-3.8389,-3.8394,-3.8309,-3.839,-3.839,-3.8389,-3.8389,-3.8389,0,-3.8442,-3.8436,-3.8444,-3.8445,-3.8452,-3.8429,-3.8428,-3.8436,-3.8449,-3.8446,-3.8452,-3.8464,-3.8472,-3.846,-3.8466,-3.8477,-3.8467,-3.848,-3.8479,-3.8478,-3.8408,-3.8402,-3.8488,-3.8488,-3.8488,-3.8488,-3.8488,-3.8488,-3.8488,-3.8512,-3.8501,-3.8524,-3.8517,-3.8531,-3.8532,-3.8532,-3.853,-3.8545,-3.8552,-3.8543,-3.8536,-3.8542,-3.8549,-3.8545,-3.8548,-3.8565,-3.8558,-3.8493,-3.8483,-3.8474,-3.8467,-3.8566,-3.8566,-3.8626,-3.8627,-3.8627]}]]